ECMWFFLT1_850_rhum_174.txt.gz
RH
64 64 63 62 60 61 60 59 58 57 57 57 56 54 51 49 48 48 50 50 56 70 87 98 100 99 100 100 100 101 100 100 99 96 93 90 88 88 91 93 93 95 90 79 75 75 76 73 68 74 87 91 85 76 67 60 53 46 41 39 37 34 32
66 68 69 70 70 71 69 66 65 63 62 61 59 55 51 50 50 49 52 55 57 64 77 93 100 100 99 100 100 100 100 101 100 100 100 98 97 98 97 96 95 95 92 83 76 76 77 71 66 74 90 95 89 81 70 61 60 58 50 44 41 37 33
71 74 76 78 78 78 76 72 70 67 65 64 60 56 54 55 56 57 57 60 62 65 72 85 98 101 100 100 100 100 100 100 100 101 101 100 101 103 100 97 96 94 90 83 79 77 74 72 78 89 99 100 93 87 82 73 68 65 58 51 48 43 38
74 77 79 82 83 84 82 78 75 71 66 65 63 60 60 61 64 65 68 69 70 70 71 78 90 99 101 100 100 100 100 100 100 101 101 100 100 102 99 96 93 88 83 80 80 77 72 77 91 98 97 93 87 84 84 79 69 64 59 55 51 47 43
75 78 80 84 86 87 86 82 77 70 66 67 69 65 62 63 67 68 70 72 73 74 73 74 80 90 98 101 101 101 100 100 101 102 102 100 96 95 93 89 85 81 79 81 80 76 71 73 83 90 91 92 91 88 83 75 65 60 60 58 53 49 47
77 79 79 82 85 87 87 83 74 68 70 74 72 66 62 62 65 67 66 67 68 70 71 70 71 77 86 94 97 98 97 97 99 100 100 97 93 91 87 83 81 80 80 80 80 81 80 80 86 93 97 98 97 90 81 74 67 61 60 60 56 51 47
75 77 76 76 81 86 85 78 71 71 77 77 68 62 61 62 65 67 66 67 68 69 70 69 69 71 77 85 90 92 93 94 93 92 91 89 86 83 80 78 79 80 81 84 89 93 93 93 97 100 97 92 90 88 86 83 77 67 61 60 57 50 46
77 78 75 72 74 77 76 73 74 77 75 69 62 58 58 61 66 69 68 68 71 75 78 78 78 77 78 83 87 88 89 89 88 86 83 81 79 77 78 81 82 81 85 92 98 100 97 94 97 99 96 94 95 94 90 84 78 72 66 62 57 52 51
80 79 78 78 78 81 83 80 76 72 66 62 57 55 59 68 77 79 78 80 84 90 95 95 93 89 85 86 90 91 87 84 86 92 93 92 91 91 92 93 91 90 94 98 100 100 97 95 98 100 100 100 98 93 86 80 77 74 68 64 58 53 53
81 82 85 90 93 92 87 77 67 60 60 58 56 63 77 88 94 95 94 96 98 97 94 91 89 88 85 84 87 90 88 86 90 95 97 100 100 99 100 99 97 98 99 100 101 98 95 95 97 96 98 97 92 86 82 79 77 74 68 65 59 52 52
82 80 81 85 86 82 72 63 57 55 56 55 60 80 97 100 100 100 99 100 100 94 89 88 90 92 91 90 90 88 86 89 95 98 98 100 100 99 100 100 100 100 100 100 101 97 96 98 96 92 93 92 87 84 83 80 78 76 71 67 65 60 55
77 74 75 76 73 67 60 56 53 52 55 55 62 84 101 100 99 100 100 100 100 97 96 97 99 99 96 95 96 96 92 94 99 100 99 101 100 100 101 99 99 101 100 102 103 100 98 98 96 94 94 92 88 86 85 82 78 76 72 69 70 69 64
75 75 75 71 65 60 55 52 50 51 56 57 63 83 99 100 100 101 99 100 100 100 99 96 94 92 89 88 93 97 99 99 97 93 93 95 96 98 100 99 99 100 99 100 101 99 96 96 98 100 98 94 93 89 85 83 78 75 73 71 71 70 66
79 77 72 65 59 56 52 49 49 53 58 59 68 87 98 99 100 100 99 101 100 95 91 87 88 90 89 86 86 91 97 98 94 92 91 92 92 91 91 91 91 91 90 90 91 93 95 98 100 103 100 96 95 91 87 84 78 74 73 72 73 71 65
81 74 65 59 57 54 51 49 51 57 60 62 73 91 99 99 100 100 100 98 90 83 81 83 88 92 92 88 85 88 95 96 95 96 95 92 89 87 86 86 86 87 87 87 89 93 98 101 101 101 99 95 93 90 86 83 80 79 81 81 77 72 66
77 67 60 57 56 55 53 53 54 60 64 63 73 92 101 99 99 100 96 87 79 78 82 83 84 88 91 91 89 91 94 94 93 93 91 88 85 83 84 86 89 92 93 92 95 98 100 100 99 97 96 96 97 94 88 88 90 92 93 90 83 74 67
69 63 59 58 58 59 59 57 56 61 65 64 74 94 103 100 99 100 93 82 79 82 82 78 81 90 96 94 91 89 85 85 88 91 91 91 90 87 85 82 83 87 89 91 96 100 101 100 99 98 99 100 101 99 96 97 99 97 95 93 86 76 69
63 61 60 61 63 65 64 61 59 63 66 65 73 92 103 100 98 98 92 85 85 87 86 84 86 93 95 91 87 84 81 84 92 98 98 98 99 97 90 82 79 84 89 91 93 96 99 102 101 99 100 101 100 100 100 101 101 98 95 91 84 74 67
63 62 62 65 69 70 68 66 64 64 68 68 71 87 101 101 97 97 95 94 94 94 94 90 85 86 92 93 90 90 93 97 99 100 100 100 101 99 92 85 86 92 96 97 96 96 98 101 102 101 101 101 101 101 100 100 100 97 90 81 73 65 59
65 65 67 70 72 72 70 70 68 66 70 72 73 85 100 102 99 100 99 98 98 96 93 87 81 83 93 97 95 95 99 102 101 99 100 101 101 100 97 96 98 99 99 100 100 99 99 100 102 103 102 100 101 101 100 98 95 87 77 68 60 56 54
68 71 72 72 73 73 71 71 71 69 72 76 76 83 97 103 100 100 100 98 97 98 95 88 84 88 93 96 97 96 94 96 100 100 97 96 96 96 95 95 96 95 94 95 96 96 98 100 100 100 100 101 101 100 97 92 84 73 63 57 55 54 51
71 75 74 71 73 74 72 73 75 74 75 81 82 84 94 102 101 99 101 100 97 99 99 91 89 96 100 98 99 98 94 95 99 97 92 91 91 88 84 81 83 85 87 90 92 94 96 98 99 100 102 102 100 96 90 79 67 59 55 54 55 53 49
74 76 74 72 72 73 73 73 76 77 79 84 86 83 88 98 101 99 101 102 98 100 101 94 88 94 100 100 101 102 98 95 94 92 90 90 89 86 85 86 88 92 95 97 97 98 99 99 101 103 101 98 94 86 75 63 55 53 54 55 54 51 47
74 77 77 75 73 72 72 74 76 78 80 84 86 83 84 95 102 100 100 101 99 99 102 98 91 92 97 99 99 100 98 96 95 92 89 86 81 79 86 96 100 99 99 101 101 100 101 100 99 99 96 92 84 71 59 53 53 54 54 53 51 48 45
75 79 81 80 75 70 71 75 77 79 80 82 86 84 83 92 101 101 99 101 100 99 101 100 98 96 96 96 95 95 96 93 87 78 69 61 53 51 64 86 101 102 100 100 100 98 97 97 97 96 91 80 66 55 52 53 55 54 54 52 49 47 45
79 83 84 82 77 73 73 75 77 79 80 82 86 86 85 91 100 102 100 100 100 100 100 100 101 101 100 97 92 87 81 74 69 64 57 47 38 33 38 57 81 95 99 100 99 99 98 97 92 84 71 59 52 52 54 55 55 55 54 52 49 47 46
83 86 86 83 80 80 79 77 77 79 81 83 88 90 90 92 98 102 103 102 101 101 100 100 100 98 95 87 76 70 69 70 74 76 66 48 36 31 31 36 49 66 80 87 90 89 86 79 69 59 52 50 52 55 56 57 56 55 53 51 50 49 48
84 86 87 87 87 87 85 81 80 83 85 88 91 94 94 94 95 98 99 98 97 98 96 95 94 91 88 84 79 79 82 84 86 84 69 48 34 32 33 33 36 43 52 58 60 59 57 53 51 50 51 53 55 57 58 59 57 55 53 53 52 51 50
84 85 89 93 92 92 92 87 84 87 92 94 93 92 93 93 93 92 90 87 90 93 92 91 91 91 90 91 92 92 91 89 89 86 71 49 36 33 34 35 36 38 40 42 45 48 50 51 53 54 54 56 57 59 60 60 58 57 57 57 56 55 54
85 86 93 95 91 91 94 91 85 87 95 99 97 93 93 96 96 95 93 92 95 98 96 94 93 92 93 96 97 95 94 93 91 87 74 52 37 35 36 36 38 42 45 50 54 57 59 59 59 59 60 60 61 62 62 63 63 62 63 63 62 62 61
92 94 99 101 97 96 97 95 90 88 91 96 99 99 99 100 100 98 98 99 100 100 99 97 97 96 97 100 100 98 97 95 90 86 79 61 42 38 40 42 47 53 57 60 63 63 64 65 65 66 66 66 66 68 69 69 69 69 71 72 72 71 71
101 102 103 104 103 102 100 99 98 95 94 95 99 101 101 101 100 99 100 101 101 101 100 100 100 100 100 101 101 99 100 97 89 85 83 68 49 44 49 53 57 61 63 65 67 67 68 69 69 69 70 69 70 71 72 74 75 76 78 79 79 80 81
101 101 100 100 101 102 101 101 100 100 99 99 99 101 101 100 100 100 101 101 100 98 98 97 97 98 99 100 100 100 101 96 86 83 83 72 56 52 57 60 63 66 68 70 72 72 71 71 71 71 71 70 70 71 73 77 79 81 83 84 84 85 86
97 98 98 98 99 100 100 99 97 97 99 99 99 100 101 100 100 100 101 101 99 97 95 93 90 90 95 100 101 101 99 91 82 82 84 73 59 57 62 63 66 71 73 75 76 75 75 74 73 72 72 70 71 73 77 80 83 85 86 87 87 88 89
88 94 98 98 97 96 96 97 96 96 97 99 99 100 101 101 100 100 99 100 100 98 95 91 85 84 91 99 102 98 91 84 81 86 87 75 61 60 63 65 70 75 78 79 80 78 77 75 74 73 73 72 74 78 82 85 87 88 89 90 92 93 94
84 90 94 94 94 93 94 98 99 98 98 99 99 100 101 101 100 100 98 97 96 94 92 90 88 88 91 96 96 91 89 89 89 91 90 79 65 60 63 67 73 79 82 82 81 78 76 75 74 73 74 75 79 84 86 88 91 92 93 95 97 99 98

ECMWFFLT1_850_rhum_180.txt.gz
RH
49 50 48 43 39 38 38 39 38 38 39 39 41 45 49 55 57 56 55 54 54 51 43 36 32 28 28 29 31 33 35 40 50 64 81 95 100 99 98 98 98 98 97 96 100 102 98 93 91 89 87 85 82 80 77 74 70 66 61 59 57 54 53
51 52 51 46 42 42 43 44 44 43 45 45 47 51 56 62 66 65 64 63 61 57 47 37 32 28 28 30 33 34 35 40 46 54 65 81 95 101 100 99 100 100 100 98 98 100 98 93 90 89 87 85 84 82 78 72 66 62 60 60 61 59 56
53 54 54 49 45 46 47 49 50 51 53 54 54 55 58 65 69 71 73 70 66 59 49 39 31 27 26 30 34 35 36 40 45 51 55 63 79 95 101 101 100 99 100 100 98 100 100 95 91 89 88 86 83 77 72 67 64 63 63 63 62 61 60
56 56 55 51 47 49 52 54 58 61 64 64 61 57 59 66 73 77 76 72 68 62 50 40 32 26 26 29 32 34 38 44 47 51 55 57 64 76 86 94 99 101 102 102 101 101 101 98 93 90 86 80 74 69 69 68 67 68 66 63 61 61 62
57 57 56 52 50 52 56 59 64 69 71 69 65 61 64 71 77 79 77 74 71 63 49 39 32 27 27 30 32 35 41 48 52 55 58 60 62 66 71 77 85 91 94 97 98 97 95 93 87 81 76 72 70 73 78 76 71 70 67 62 60 60 60
59 59 56 54 53 56 60 64 68 72 73 71 67 66 70 77 81 81 80 80 74 60 47 39 34 31 32 35 38 42 48 55 59 63 64 65 67 70 73 75 77 79 82 85 87 89 89 86 80 76 74 74 78 83 84 81 76 74 72 66 62 58 55
60 59 58 56 57 60 64 68 71 74 73 71 69 71 77 81 82 82 83 82 72 57 46 40 36 36 38 42 47 51 57 62 65 67 69 69 70 71 75 78 79 79 81 83 85 90 91 86 81 80 78 76 78 80 81 87 90 86 79 74 67 59 53
61 61 60 59 61 64 67 71 73 74 74 72 72 74 79 82 83 84 83 74 61 51 45 42 40 42 44 49 54 58 62 66 69 70 70 69 71 75 79 82 84 87 87 88 92 95 92 88 86 84 80 78 81 82 86 95 101 96 87 81 72 63 57
63 63 62 62 64 67 70 72 74 75 76 75 75 78 83 86 85 82 73 60 51 45 41 40 42 45 48 52 57 61 64 69 73 74 74 75 79 87 93 94 95 96 95 95 97 97 95 95 97 93 89 91 94 96 98 100 99 95 88 82 76 68 64
64 64 63 65 67 69 72 74 76 78 78 76 77 81 83 82 77 70 60 51 47 44 42 46 51 53 55 59 64 67 69 74 79 82 85 87 88 91 96 98 97 97 98 98 99 99 99 99 98 97 98 100 99 98 97 95 92 89 84 82 78 72 68
66 65 65 68 70 72 75 77 78 79 77 78 81 84 85 83 77 69 62 59 61 61 62 66 69 67 66 70 77 78 77 82 88 90 90 88 88 92 97 98 99 100 99 100 100 100 99 97 96 98 99 97 94 92 91 89 88 86 83 82 81 77 70
68 67 69 71 74 77 79 79 79 78 78 81 85 89 93 91 82 77 78 82 83 82 82 83 86 85 81 81 86 86 85 90 94 91 86 83 82 86 89 89 93 98 100 100 100 100 99 98 98 98 95 91 90 90 90 89 87 85 83 81 81 78 73
71 71 73 76 79 81 81 80 80 80 82 85 87 92 93 84 76 81 91 95 92 89 90 92 94 93 91 92 96 95 94 96 93 86 80 79 78 79 80 80 82 89 96 100 102 102 100 97 97 95 91 88 89 92 93 92 87 83 80 78 78 79 78
75 76 79 83 84 84 82 81 82 84 87 89 92 94 87 77 80 93 101 101 97 95 95 95 93 92 95 98 97 92 91 91 87 82 79 78 78 78 77 78 80 86 91 94 95 95 92 89 90 91 89 88 93 98 99 95 88 82 79 78 82 86 85
82 84 87 88 86 84 84 84 88 92 93 95 98 92 79 74 84 92 93 91 88 85 87 90 90 90 92 92 86 80 82 84 83 81 79 77 77 78 79 81 85 87 88 89 90 90 89 90 92 95 95 95 98 101 99 95 89 85 85 87 92 93 89
90 91 91 89 87 86 88 92 96 99 100 103 100 85 70 68 72 72 69 68 65 63 68 73 76 79 82 82 80 77 79 83 82 78 77 77 77 77 79 78 78 81 86 88 91 95 98 99 99 99 99 98 100 102 98 95 93 92 95 98 98 94 86
95 93 91 89 89 91 95 99 101 101 103 103 92 75 65 65 65 63 60 57 53 55 59 64 70 79 83 82 79 80 83 84 80 77 80 82 79 78 79 78 80 86 87 82 80 86 93 98 98 99 100 100 101 100 96 94 96 97 100 101 99 95 89
95 93 91 91 92 96 100 102 102 103 102 96 80 68 66 67 66 65 62 58 56 57 59 65 74 83 88 86 82 82 84 80 76 80 89 93 91 92 93 91 89 90 85 79 79 80 84 89 92 94 97 100 101 100 97 97 97 98 100 101 100 99 96
95 93 93 94 96 100 102 101 101 101 96 84 70 66 68 70 69 67 62 60 61 62 63 70 80 87 89 88 86 84 84 84 87 93 98 99 99 99 98 95 91 89 86 86 88 86 84 89 94 96 99 102 102 100 98 99 100 100 100 100 100 99 100
96 95 95 97 100 102 101 99 98 95 86 75 68 68 71 72 72 69 65 65 68 69 71 77 87 91 88 84 84 86 88 93 98 101 100 99 100 101 99 95 92 92 92 91 90 87 84 86 88 90 91 90 88 87 86 90 97 102 101 100 101 102 103
98 97 96 97 99 99 98 96 93 86 79 72 69 70 71 71 70 69 68 70 73 73 74 79 85 87 85 84 86 88 89 93 99 101 100 100 101 100 96 91 89 90 91 88 86 82 79 78 78 78 78 78 80 83 86 91 99 103 103 103 104 104 102
99 96 95 95 96 95 94 92 87 81 76 73 72 71 71 70 68 68 72 79 83 81 81 85 87 85 87 92 95 93 92 94 99 101 100 100 100 99 98 96 96 94 89 85 82 78 75 71 65 62 64 73 83 89 92 96 100 102 103 103 102 100 97
100 97 96 95 94 94 93 89 83 78 75 75 75 72 70 70 69 71 80 92 98 96 93 95 95 91 89 94 99 99 97 98 100 101 100 100 100 100 100 98 94 88 83 78 74 68 61 53 45 43 51 65 80 91 95 97 100 100 100 98 93 87 78
101 100 99 97 95 94 93 87 80 76 75 77 78 74 71 71 70 73 84 94 96 95 94 95 98 96 91 90 96 102 101 100 100 100 99 100 100 98 96 90 82 76 71 67 63 58 51 43 37 37 42 50 63 75 83 89 92 91 88 82 73 64 57
101 102 101 99 97 95 92 85 78 76 77 80 82 79 74 73 72 73 78 84 84 86 90 94 98 98 94 93 98 102 101 98 96 95 95 96 96 92 86 78 72 69 67 66 65 58 47 36 31 31 33 37 43 51 59 66 68 68 65 60 54 51 52
101 103 101 99 98 96 91 82 75 75 78 82 86 84 79 77 76 74 75 77 78 80 87 95 98 96 95 97 101 102 101 98 95 93 93 92 90 85 79 75 74 74 74 73 65 50 37 31 31 32 33 34 36 40 45 49 50 50 52 52 52 53 55
101 103 101 99 99 96 90 83 76 74 77 83 87 87 82 78 76 76 77 78 78 82 90 98 100 97 97 100 101 100 98 96 93 92 91 89 85 82 80 82 82 80 78 73 59 42 33 32 33 34 35 36 38 42 45 48 49 51 53 55 57 57 56
102 102 101 101 101 98 90 83 76 73 77 85 89 87 83 79 77 78 79 80 81 86 95 102 103 100 99 98 96 95 94 93 92 91 90 88 87 88 89 91 89 85 81 75 61 43 34 33 35 38 41 43 47 51 54 56 57 58 59 60 61 61 61
102 102 102 101 101 98 91 83 77 77 83 90 89 85 82 81 80 81 83 85 87 92 99 104 104 102 101 99 97 96 94 91 89 90 92 94 96 97 97 96 94 88 82 76 64 46 37 38 42 47 51 54 57 60 62 62 63 63 64 66 66 67 68
102 101 102 101 100 97 92 85 81 83 89 92 89 84 83 83 84 84 85 89 95 98 101 103 104 103 102 98 96 93 89 87 88 93 98 100 101 101 99 99 97 89 81 76 65 51 45 49 53 57 61 62 63 64 65 66 67 67 68 69 69 70 72
103 102 102 102 99 96 92 89 87 88 92 91 86 83 82 85 91 94 93 95 100 102 102 102 103 102 98 94 91 88 86 88 94 100 101 101 100 100 99 100 97 88 80 76 66 55 54 59 62 64 66 66 67 68 68 68 69 70 70 70 71 73 76
101 102 103 102 99 96 94 92 92 93 93 90 86 86 89 93 98 100 99 99 100 101 100 99 98 97 94 91 90 89 90 94 98 99 99 98 97 97 100 101 95 86 82 78 68 58 59 64 65 68 70 72 72 71 70 71 71 71 72 73 75 79 82
98 100 102 102 101 100 97 95 96 97 97 95 94 96 98 99 100 99 98 100 101 101 100 99 98 95 91 88 89 90 93 98 101 99 96 92 90 93 100 101 94 88 86 81 68 60 62 66 69 73 75 76 76 74 73 73 73 72 75 78 81 85 88
96 99 102 103 102 101 100 99 99 100 100 100 100 99 99 100 101 98 97 100 101 100 100 101 99 95 91 91 93 94 95 99 102 101 96 88 86 92 99 99 95 92 91 83 69 62 64 69 73 77 79 79 79 77 74 74 74 76 81 86 87 90 94
94 97 102 104 103 102 101 101 101 101 102 102 101 98 98 101 100 95 92 96 99 100 100 100 99 97 96 98 99 99 98 99 101 102 97 89 86 91 97 99 99 98 94 86 72 63 65 71 76 81 83 81 80 77 74 75 78 83 88 91 92 96 101
94 97 100 103 104 104 103 102 102 102 103 101 99 99 100 101 98 91 87 91 95 99 100 99 98 99 101 100 98 97 98 100 101 102 99 92 89 93 98 100 101 100 97 90 76 65 66 73 79 83 84 81 79 77 76 78 85 90 93 95 98 102 103

ECMWFFLT1_850_rhum_186.txt.gz
RH
38 42 47 53 57 52 43 39 39 40 41 42 43 42 41 38 34 31 29 27 27 26 27 28 29 30 31 32 33 35 37 35 33 31 31 34 35 33 35 37 44 50 41 39 53 59 54 51 50 50 51 57 63 63 66 75 68 49 34 26 29 36 40
40 42 47 54 58 55 47 42 41 42 44 44 45 45 44 43 40 36 33 31 31 31 32 33 35 35 35 36 35 37 40 38 38 37 34 37 38 35 37 42 46 51 52 47 49 55 51 46 48 53 54 57 65 65 63 72 77 65 52 40 35 40 48
44 45 49 55 59 57 50 45 44 45 46 46 47 47 47 46 44 41 38 36 35 36 38 39 40 40 40 40 40 41 42 42 39 39 37 35 34 31 32 43 55 62 62 56 57 59 50 44 50 58 59 56 60 62 58 69 86 81 64 51 42 42 48
48 50 53 56 59 59 54 47 46 47 47 49 49 49 50 49 48 46 44 41 40 41 43 45 45 45 45 44 44 44 45 44 40 37 36 32 31 29 28 37 53 62 67 69 72 69 54 46 52 58 58 54 56 65 69 77 89 81 62 53 47 43 45
51 54 56 58 60 60 56 50 48 48 49 51 52 52 52 52 51 50 49 47 46 46 48 50 51 51 51 48 46 46 45 44 40 38 36 32 30 30 31 37 47 56 69 76 73 65 53 47 51 55 57 54 55 69 81 86 87 76 63 58 52 46 46
53 55 57 59 61 61 58 52 50 50 52 53 54 54 54 55 54 54 53 52 52 52 53 56 58 57 56 52 49 48 47 44 41 39 36 35 33 35 39 45 48 53 61 65 61 60 57 53 54 58 60 59 62 79 90 87 81 76 74 71 62 55 55
55 57 59 61 62 62 59 54 52 53 55 56 57 57 57 58 58 57 58 58 57 59 61 62 64 63 60 56 52 51 49 47 44 41 38 39 40 43 47 51 54 58 60 60 61 63 63 60 59 64 68 66 70 80 85 83 82 85 90 87 78 74 75
58 59 61 63 63 63 60 56 55 56 57 59 59 59 60 61 62 62 62 63 64 66 68 69 69 67 63 60 57 54 52 50 47 43 43 46 48 50 54 58 62 67 69 70 73 72 71 72 74 76 79 80 81 83 84 88 93 97 100 97 90 88 85
62 63 64 65 64 64 61 58 57 58 60 61 61 63 65 65 66 67 67 69 71 72 73 74 73 69 66 64 61 58 56 53 49 46 48 54 56 57 62 66 71 79 86 89 89 86 84 88 92 92 92 94 97 97 97 99 100 100 101 100 99 98 92
67 66 67 67 66 64 62 59 60 62 63 65 66 68 70 70 71 73 74 76 77 77 77 77 75 71 70 69 66 63 60 55 49 48 53 61 66 67 70 75 81 89 95 98 98 97 96 98 101 100 99 99 100 99 100 100 100 102 102 100 101 102 97
71 70 70 69 67 64 62 61 62 66 68 70 72 74 76 78 79 79 80 81 81 81 81 80 78 75 74 73 71 67 62 56 51 54 62 69 73 72 74 80 88 94 98 99 100 101 101 101 101 100 100 101 101 102 102 102 101 102 103 101 102 103 100
74 73 72 72 68 64 63 64 67 71 74 76 79 81 84 85 84 84 85 84 84 85 85 84 81 78 76 74 73 70 63 55 54 64 77 81 77 74 75 81 89 95 99 100 100 100 100 100 100 101 100 97 95 97 99 100 100 101 101 102 103 102 98
79 77 75 74 71 65 64 68 74 78 80 83 87 89 89 89 88 88 87 87 88 90 90 89 86 82 77 72 70 69 64 55 56 70 85 92 90 87 86 89 95 99 100 100 101 101 101 101 100 99 94 86 82 85 90 93 96 101 102 101 102 101 94
84 81 79 77 73 66 68 76 81 83 86 91 94 95 93 91 90 91 92 93 96 97 95 91 88 85 82 78 74 70 61 55 61 76 89 97 100 98 91 88 93 96 96 97 99 98 97 97 94 89 83 78 79 86 94 97 99 102 102 100 102 101 92
87 85 83 81 74 71 76 83 85 89 94 97 98 99 98 95 95 97 98 98 100 100 98 96 93 90 88 89 87 76 60 58 71 87 95 95 91 87 85 87 92 93 91 90 90 87 86 86 82 78 77 81 88 94 98 100 102 102 100 100 102 99 90
89 88 86 81 77 79 84 88 90 95 100 100 100 101 101 99 99 100 100 100 100 100 100 100 99 96 93 92 91 79 64 67 83 94 98 95 90 87 91 94 90 85 83 82 78 76 78 80 81 84 88 93 99 101 100 101 101 100 98 98 99 96 92
89 88 86 84 84 88 91 92 96 100 101 101 101 101 100 100 100 100 100 100 100 100 101 101 98 97 94 93 90 78 67 72 89 99 98 93 90 91 94 89 76 71 76 76 75 80 89 93 94 96 100 101 99 96 92 91 92 94 97 101 102 102 101
90 89 90 91 93 95 97 97 100 102 101 102 102 101 101 100 100 100 100 100 101 101 102 99 95 93 92 90 85 73 64 68 81 93 97 94 89 85 82 76 68 70 76 74 75 85 97 101 101 100 100 96 90 84 80 80 85 88 93 97 97 98 98
96 96 97 98 99 100 101 100 101 101 101 102 102 100 100 100 100 101 100 100 101 102 101 98 93 89 87 84 76 66 62 62 65 72 83 94 98 93 84 76 70 71 75 75 75 81 88 91 91 91 92 90 87 87 86 86 88 87 87 87 83 86 93
101 100 100 101 101 101 101 100 101 101 102 103 102 101 100 100 100 100 100 100 101 101 101 98 92 87 83 77 69 64 61 59 65 77 87 96 103 101 97 92 82 77 81 85 85 83 83 84 84 87 92 94 93 92 88 86 85 81 80 78 72 74 83
101 102 101 102 101 101 101 101 101 102 102 102 101 101 101 101 100 100 100 101 101 100 99 98 93 86 78 69 66 68 62 58 74 94 100 100 101 100 100 101 95 89 93 97 98 96 91 89 91 94 98 97 92 87 84 81 77 71 68 64 57 58 62
101 101 101 101 101 100 101 100 101 102 102 102 101 101 101 101 100 101 100 100 101 100 100 100 97 87 75 67 68 70 65 65 84 100 100 99 101 100 99 101 101 100 100 98 99 101 99 98 99 99 98 94 89 84 79 73 68 63 59 55 49 47 46
101 101 101 100 100 100 100 100 101 102 102 102 100 99 99 100 101 102 101 100 100 100 100 102 100 89 75 70 72 72 72 79 94 102 100 99 101 100 100 101 102 103 101 97 98 101 100 100 100 98 97 93 86 80 74 69 65 61 56 49 40 35 35
99 101 101 100 100 100 100 100 101 102 103 103 101 98 97 98 98 99 102 102 101 100 100 101 101 94 82 75 75 81 90 98 100 100 100 100 100 101 102 103 104 103 100 99 101 101 99 98 98 97 94 88 81 75 71 68 64 55 45 38 32 30 33
99 101 101 101 101 100 100 100 100 102 102 102 102 100 97 94 93 94 98 101 102 101 100 100 101 99 91 82 79 85 97 103 101 99 100 100 100 101 102 102 103 102 101 101 101 99 98 98 96 92 88 82 77 73 69 64 57 45 35 32 31 32 35
100 101 101 101 100 99 100 101 100 101 103 103 102 98 94 93 94 96 99 101 101 100 100 100 100 99 95 90 86 87 95 100 99 99 100 100 100 101 101 101 101 100 101 101 100 99 99 98 93 87 83 79 74 70 66 58 47 36 31 33 37 39 42
97 100 101 101 101 100 101 101 101 101 101 100 99 97 95 95 96 97 98 99 97 95 95 95 98 99 100 97 92 91 97 101 100 99 100 100 100 100 100 100 100 100 100 100 100 100 98 93 88 84 81 78 73 68 61 51 40 36 39 44 49 52 53
97 100 101 101 101 101 101 101 100 97 95 95 96 95 94 93 91 92 94 94 92 91 92 95 99 102 102 99 93 90 94 99 100 100 100 101 100 100 100 100 100 100 100 100 100 98 94 89 86 84 81 77 72 65 57 48 43 46 52 57 60 61 61
98 99 100 102 102 102 101 99 94 90 91 94 94 93 91 88 88 90 91 91 91 93 96 100 104 103 99 95 92 90 90 94 98 101 102 103 102 100 100 100 100 100 100 100 97 94 91 88 86 85 83 77 70 64 55 50 52 57 61 64 67 67 66
97 96 99 102 102 100 98 96 92 90 92 93 92 92 91 89 89 91 90 90 94 99 103 104 103 100 96 93 93 93 93 94 99 102 103 103 102 101 100 100 100 101 99 97 95 92 90 88 88 88 84 77 71 64 57 54 59 64 68 70 71 71 70
100 99 99 98 97 94 93 94 94 93 93 93 92 93 93 90 89 91 91 92 96 101 103 102 100 97 95 93 95 97 98 99 101 102 102 102 101 101 101 100 99 98 95 94 95 94 90 89 91 90 85 80 74 65 58 59 64 69 74 76 76 74 72
102 102 101 98 96 96 95 95 95 95 94 93 93 94 94 92 93 95 95 95 99 101 101 100 98 96 95 95 97 98 100 101 101 100 101 103 103 101 100 99 96 94 94 97 98 95 89 88 90 90 87 84 78 67 60 63 69 75 78 79 77 75 72
101 102 103 101 99 99 98 95 93 92 92 91 91 90 89 89 94 99 99 98 100 101 100 99 97 97 97 98 97 98 99 100 100 100 101 102 102 99 96 95 94 96 98 100 99 93 88 88 89 90 89 88 80 69 63 66 73 79 82 80 77 74 72
100 100 101 102 102 102 101 99 96 94 93 91 90 89 86 87 93 100 101 99 100 101 100 100 99 98 99 99 98 99 100 100 99 99 99 98 98 97 96 95 97 99 101 100 98 93 89 88 90 91 91 90 83 71 65 68 76 82 83 80 77 75 75
100 100 101 103 103 103 103 103 102 102 100 97 95 95 95 96 99 101 101 100 100 101 101 102 101 98 95 95 95 94 95 96 96 97 98 98 97 97 98 99 100 101 101 100 98 95 91 90 92 92 92 92 86 74 67 70 78 83 82 79 77 78 81
97 96 97 99 100 102 103 104 104 103 102 101 100 99 100 101 101 100 100 100 101 100 100 100 100 98 95 97 99 98 96 96 96 96 97 99 99 99 100 101 100 100 100 98 96 95 93 93 93 93 92 93 89 77 70 73 80 83 81 78 79 83 88

ECMWFFLT1_850_rhum_192.txt.gz
RH
45 44 43 43 42 42 42 42 42 41 42 42 42 42 42 43 44 44 44 43 42 40 36 33 31 30 31 30 29 28 27 27 27 27 28 28 28 27 26 26 28 29 30 32 34 34 33 33 33 33 35 35 36 38 38 39 37 33 28 23 19 17 15
46 45 45 44 43 43 44 44 44 44 44 44 44 44 44 44 45 45 45 44 44 42 40 37 34 32 32 32 32 31 31 30 30 31 31 30 30 30 29 30 31 32 33 33 35 36 34 33 33 33 33 33 34 37 40 40 38 33 28 26 23 20 17
47 47 47 46 45 45 46 46 46 46 46 46 46 46 46 46 46 46 46 46 45 44 43 40 37 35 34 34 34 34 33 33 33 33 33 33 34 34 33 34 36 36 37 36 36 38 37 36 36 36 37 38 39 42 43 40 36 33 30 28 24 20 18
50 50 49 49 48 47 48 48 48 49 49 49 49 48 48 48 48 48 47 47 46 46 45 43 40 38 36 36 36 36 36 36 35 35 35 35 35 36 36 37 38 40 41 41 39 40 41 40 40 43 45 47 47 46 44 39 35 32 28 24 21 20 22
55 54 53 52 51 50 50 50 51 51 51 51 51 51 51 50 50 50 49 49 48 47 47 45 42 40 39 38 38 39 39 38 37 37 37 37 38 39 40 41 42 43 43 43 40 39 40 42 43 46 49 51 51 47 45 39 32 28 23 20 22 26 28
60 59 57 56 55 54 53 53 54 54 53 53 53 52 53 53 53 53 52 51 50 49 48 47 44 42 41 41 41 41 41 41 41 42 43 44 47 48 49 50 50 50 48 46 43 40 39 40 41 42 44 49 51 48 42 36 28 24 24 26 30 35 39
63 63 62 62 60 59 58 58 57 57 56 55 55 55 55 55 55 55 54 53 52 51 50 48 46 45 43 43 43 43 44 45 47 50 53 56 59 61 62 62 61 59 56 51 48 44 42 40 40 41 42 44 46 44 39 35 31 29 34 41 44 47 53
67 67 66 66 66 64 63 62 61 61 60 59 58 57 57 57 57 57 56 55 54 53 52 50 48 47 46 45 45 46 48 52 56 61 65 68 71 72 73 72 70 68 63 58 54 50 47 45 43 44 44 44 47 47 41 39 42 46 54 64 67 67 67
70 70 70 70 71 70 69 68 67 66 64 63 62 60 60 59 59 59 58 57 56 55 54 53 51 49 49 47 48 51 56 62 67 71 74 77 78 79 80 79 77 74 68 63 59 55 53 51 49 50 52 54 57 54 48 52 62 67 71 77 77 74 69
74 74 74 74 75 76 75 74 73 72 70 68 67 65 63 62 62 61 61 60 59 58 57 56 55 53 53 52 53 59 66 72 76 78 81 83 83 84 84 84 83 79 74 70 66 61 59 58 57 60 66 68 68 68 68 75 80 77 77 81 77 71 63
77 78 78 79 82 83 82 81 79 78 77 74 72 70 68 66 65 64 64 63 62 61 61 60 59 59 57 57 61 68 75 79 82 85 86 86 86 86 87 88 87 85 81 77 73 67 65 66 64 67 74 76 76 77 81 84 84 85 89 91 87 80 68
78 81 83 86 90 92 91 90 88 86 84 81 79 77 74 72 70 68 67 67 66 65 65 64 64 63 62 63 69 77 82 85 88 90 90 89 90 90 90 92 91 89 85 82 78 73 70 70 70 70 75 79 78 79 84 89 94 98 99 95 91 84 73
75 79 83 86 90 92 93 94 94 92 90 88 85 83 81 78 76 74 71 70 70 69 69 69 68 67 67 71 78 84 88 90 93 94 93 92 92 92 94 95 93 89 87 84 83 80 74 72 74 72 71 73 75 81 90 96 96 92 87 83 82 79 76
68 72 78 82 85 88 89 91 93 94 93 91 90 91 88 84 82 79 76 75 74 73 73 73 72 71 74 80 85 88 92 95 96 96 95 93 93 94 95 95 92 89 87 85 85 84 82 82 82 76 71 73 82 89 92 90 84 78 76 78 80 82 86
70 70 72 75 78 80 82 85 89 92 92 91 92 97 97 92 87 85 82 80 79 79 78 77 76 78 83 88 91 94 97 98 99 99 97 95 94 95 95 93 91 89 87 84 80 79 83 88 88 79 70 72 78 80 78 77 77 77 80 83 85 89 91
76 76 75 74 75 76 75 77 81 85 89 90 92 98 101 98 95 93 89 85 84 83 83 81 83 88 93 96 98 99 100 101 102 101 98 95 93 93 92 90 89 88 86 85 83 79 78 81 83 81 78 77 79 79 78 82 86 87 88 90 92 96 95
81 82 81 80 80 78 77 76 76 78 82 86 91 97 100 100 100 100 97 93 90 86 85 87 91 96 99 100 100 101 102 102 102 99 95 91 89 89 88 85 84 84 83 88 96 97 93 91 92 94 95 94 95 95 95 97 99 98 97 97 98 100 98
83 83 83 82 82 83 82 79 78 79 80 82 90 98 101 100 100 101 101 99 96 91 91 96 99 100 101 101 100 101 101 102 101 96 92 90 90 92 92 88 85 83 81 85 93 96 97 98 99 100 101 101 101 101 100 100 101 100 100 100 100 100 99
87 84 83 83 83 83 84 84 83 84 84 83 88 96 101 101 100 100 100 100 99 98 98 101 101 101 101 101 101 101 101 102 102 98 94 95 97 100 98 94 93 92 90 89 88 85 83 82 81 82 85 89 92 95 97 100 101 100 100 100 100 100 100
93 89 86 86 85 84 85 86 87 89 92 90 89 94 99 100 100 100 100 100 100 100 101 102 102 102 102 102 102 101 100 102 103 99 97 99 101 101 100 98 98 99 99 98 93 86 77 68 66 66 64 63 66 73 85 97 101 101 101 101 101 101 101
94 93 90 88 87 85 84 85 87 90 96 98 96 96 99 100 100 100 100 100 101 101 101 101 101 100 101 101 100 98 98 100 102 100 99 99 100 101 100 99 100 100 100 99 95 88 78 68 66 69 69 66 67 71 80 92 98 98 97 96 98 100 101
92 93 91 90 88 86 83 84 87 90 95 100 101 99 99 100 100 100 100 100 101 101 101 101 100 99 100 100 99 98 98 100 98 94 92 94 98 101 101 100 101 100 100 100 95 90 88 81 75 75 78 81 83 83 84 87 88 87 87 88 93 97 99
92 92 89 86 85 85 84 83 84 88 91 97 101 101 100 100 100 100 100 100 100 100 100 100 100 100 100 100 99 99 98 96 91 88 90 96 100 102 101 100 100 100 100 101 98 95 97 94 86 82 83 85 86 86 87 85 84 84 88 93 97 97 95
98 96 94 91 87 85 84 82 82 84 87 91 97 100 101 100 100 100 100 100 100 100 100 100 100 100 100 100 100 99 97 96 95 96 99 102 102 101 101 100 100 100 100 101 100 99 99 98 92 88 90 92 91 90 89 86 86 88 93 97 95 90 86
100 100 99 100 97 91 87 85 84 83 83 87 94 98 100 100 100 100 100 99 100 100 99 99 99 100 100 100 99 98 97 98 101 101 99 98 99 100 99 97 98 100 100 100 100 100 100 100 97 95 96 99 99 98 96 92 91 95 98 96 89 84 81
101 100 99 100 101 99 96 95 93 88 83 84 89 96 101 102 101 100 100 99 100 99 98 97 97 98 99 99 98 97 97 98 101 98 94 94 96 96 94 94 96 100 101 100 100 100 100 100 100 100 100 100 100 101 101 98 98 100 99 92 86 82 79
100 101 101 100 100 100 100 101 100 93 86 84 86 92 99 102 101 101 101 100 100 100 99 99 99 100 101 100 97 94 93 96 101 101 98 98 99 97 93 92 94 97 100 101 100 100 99 100 101 101 100 100 102 103 102 101 102 100 95 88 84 82 77
100 100 100 101 101 100 99 100 100 96 91 87 87 89 95 101 103 102 101 101 101 101 101 102 102 101 98 95 91 88 87 88 92 97 100 101 101 99 97 95 95 95 97 100 101 100 99 100 100 100 101 101 102 102 102 102 99 94 88 84 82 80 76
101 101 99 100 101 101 101 100 99 99 97 92 88 87 91 98 102 103 103 103 102 102 101 99 96 92 88 86 85 85 85 85 86 91 98 102 102 101 101 99 97 95 95 98 101 100 100 101 100 100 101 102 100 100 100 98 93 88 84 82 80 78 76
101 102 100 100 100 99 101 102 100 100 101 99 94 92 93 97 101 102 103 103 102 99 96 91 87 83 80 80 83 85 86 87 87 90 95 100 103 104 102 99 96 94 95 99 101 101 100 101 101 100 101 101 101 100 97 92 87 85 82 80 78 77 74
100 99 97 99 102 100 100 101 100 100 102 102 100 97 95 97 101 102 102 100 97 94 89 85 82 80 78 80 83 85 87 89 90 93 97 101 104 105 103 100 95 92 94 99 103 103 101 100 101 101 102 102 101 98 93 88 86 83 80 79 78 78 76
94 98 94 95 100 101 101 101 100 100 100 101 101 100 98 97 99 101 101 98 94 91 88 85 82 79 79 81 83 86 89 91 93 98 102 104 104 101 97 94 90 89 94 101 104 104 102 101 100 101 101 100 99 95 90 88 86 83 82 82 81 81 80
92 98 98 97 96 96 98 101 100 100 100 99 100 101 101 100 100 100 101 99 94 89 86 85 83 80 77 78 82 87 93 96 98 101 102 102 101 97 91 88 88 91 98 103 104 103 103 101 100 101 101 99 97 94 90 88 87 86 86 86 84 84 83
87 91 95 98 96 92 93 96 98 100 101 100 100 100 100 100 100 100 101 100 98 92 87 83 82 79 77 78 81 87 96 101 101 100 98 98 100 99 96 94 94 94 95 98 101 103 105 104 102 101 100 98 96 93 89 87 87 88 88 88 87 87 86
94 95 97 102 102 99 97 95 92 93 96 98 100 101 100 100 100 100 99 98 99 99 96 90 85 82 82 83 84 87 94 100 101 99 96 94 95 98 100 100 99 96 94 95 98 101 103 104 103 100 99 98 96 91 86 85 87 90 91 90 90 90 87
94 94 97 100 101 102 103 100 94 90 89 91 94 97 99 100 100 100 100 97 95 96 97 96 93 90 88 89 89 90 94 98 99 98 98 96 96 97 99 99 98 96 95 96 99 100 101 102 102 100 99 99 95 89 84 85 91 95 94 92 92 92 89